Powrót do katalogu

KANOPUS-V 5

AktywnyNaukaSSO
NORAD 43876·PAYLOAD·🇷🇺 Russia

Wystrzelony Dec 27, 2018 z Vostochny Cosmodrome

Loading…

Następne Przeloty (najbliższe 24 godziny)

TLE

ŚwieżeSource: Space-Track

Epoka: Sep 14, 2026, 15:09 UTC

1 43876U 18111A   26257.63143778  .00001815  00000-0  81664-4 0  9995
2 43876  97.3473 161.2427 0001798  90.7072 269.4371 15.22346996428391

Śledź KANOPUS-V 5 w czasie rzeczywistym z AllMySat

Download on the App Store